This demonstration page uses our WeatherBlox Daily Observations layout. Learn more.

Left ArrowRight Arrow

41.86663, -103.66717

Hourly Observations for March 11, 2021

Temp ( °F °C ) Dew Point ( °F °C ) Humidity (%) Winds ( mph kmh ) Pressure ( in mb ) Visibility ( mi km ) Precip ( " mm )
12:53 am 00:53 Clear 23 -5 19 -7.2 85 85 NNW 8 13 30.1 1019 10 16.0934 0 0
1:53 am 01:53 Clear 22 -5.6 17 -8.3 82 82 WNW 9 15 30.12 1020 10 16.0934 0 0
2:53 am 02:53 Clear 20 -6.7 16 -8.9 85 85 NW 10 17 30.11 1020 10 16.0934 0 0
3:53 am 03:53 Clear 18 -7.8 14 -10 84 84 W 8 13 30.14 1021 10 16.0934 0 0
4:53 am 04:53 Clear 17 -8.3 13 -10.6 84 84 NNW 3 6 30.17 1022 10 16.0934 0 0
5:53 am 05:53 Clear 15 -9.4 11 -11.7 84 84 W 3 6 30.21 1023 10 16.0934 0 0
6:53 am 06:53 Sunny 18 -7.8 14 -10 84 84 WNW 7 11 30.22 1024 10 16.0934 0 0
7:53 am 07:53 Sunny 22 -5.6 17 -8.3 82 82 W 3 6 30.26 1025 10 16.0934 0 0
8:53 am 08:53 Sunny 27 -2.8 21 -6.1 78 78 N 5 7 30.26 1025 9 14.48406 0 0
9:53 am 09:53 Sunny 32 0 24 -4.4 73 73 Calm 30.25 1024 10 16.0934 0 0
10:53 am 10:53 Sunny 38 3.3 26 -3.3 62 62 E 5 7 30.21 1023 10 16.0934 0 0
11:53 am 11:53 Mostly Cloudy 41 5 25 -3.9 53 53 E 10 17 30.19 1022 10 16.0934 0 0
12:53 pm 12:53 Cloudy 40 4.4 24 -4.4 53 53 SE 8 13 30.18 1022 10 16.0934 0 0
1:53 pm 13:53 Cloudy 43 6.1 24 -4.4 47 47 ESE 10 17 30.16 1022 10 16.0934 0 0
2:53 pm 14:53 Cloudy 43 6.1 24 -4.4 47 47 E 14 22 30.17 1022 10 16.0934 0 0
3:53 pm 15:53 Partly Cloudy 45 7.2 26 -3.3 48 48 E 14 22 30.15 1021 10 16.0934 0 0
4:53 pm 16:53 Sunny 43 6.1 26 -3.3 51 51 ENE 14 22 30.17 1022 10 16.0934 0 0
5:53 pm 17:53 Sunny 38 3.3 26 -3.3 62 62 ENE 12 19 30.22 1023 10 16.0934 0 0
6:53 pm 18:53 Partly Cloudy 35 1.7 25 -3.9 67 67 NE 12 19 30.24 1024 10 16.0934 0 0
7:53 pm 19:53 Clear 33 0.6 24 -4.4 70 70 SE 6 9 30.26 1025 10 16.0934 0 0
8:53 pm 20:53 Mostly Clear 34 1.1 26 -3.3 73 73 SE 5 7 30.27 1025 10 16.0934 0 0
9:53 pm 21:53 Cloudy 35 1.7 26 -3.3 70 70 Calm 30.28 1025 10 16.0934 0 0
10:53 pm 22:53 Cloudy 35 1.7 27 -2.8 72 72 NNE 5 7 30.26 1025 10 16.0934 0 0
11:53 pm 23:53 Cloudy 35 1.7 26 -3.3 70 70 E 7 11 30.25 1025 10 16.0934 0 0

Powered by AerisWeather